#timestamp,LO_Frequency,Hit,StdDev 
1513843215.7,286047012.2,N
1513843235.6,286047011.7,N
1513843255.4,286047014.0,N
1513843275.2,286047011.7,N
1513843295.1,286047011.5,N
1513843296.0,286047011.5,N
1513843315.8,286047012.8,N
1513843335.6,286047011.1,N
1513843355.5,286047009.9,N
1513843375.3,286047012.8,Y
1513843395.1,286046998.3,P
1513843415.9,286046999.7,N
1513843435.7,286047002.6,N
1513843455.5,286046996.9,N
1513843475.3,286046995.7,N
1513843495.2,286046994.7,N
1513843515.0,286046992.2,N
1513843515.9,286046992.2,N
1513843535.7,286046995.7,N
1513843555.6,286046995.2,N
1513843575.4,286046999.6,N
1513843595.2,286046997.5,N
1513843615.1,286046992.3,N
1513843616.0,286046992.3,N
1513843635.8,286046993.7,N
1513843655.6,286046992.8,N
1513843675.5,286046987.1,N
1513843695.3,286046989.0,N
1513843715.1,286046986.8,N
1513843735.9,286046989.5,N
1513843755.7,286046989.3,N
1513843775.5,286046989.8,N
1513843795.3,286046987.4,N
1513843815.2,286046991.6,N
1513843835.0,286046990.2,N
1513843835.9,286046990.2,N
1513843855.7,286046992.6,N
1513843875.6,286046993.6,N
1513843895.4,286046996.6,N
1513843915.2,286046996.9,N
1513843935.1,286047001.0,N
1513843936.0,286047001.0,N
1513843955.8,286047002.7,N
1513843975.6,286047002.8,N
1513843995.5,286047004.3,N
1513844015.3,286047003.7,N
1513844035.1,286047007.6,N
1513844055.9,286047007.4,N
1513844075.7,286047006.8,N
1513844095.5,286047007.9,N
1513844115.4,286047009.9,N
1513844135.2,286047007.8,N
1513844155.0,286047011.2,N
1513844155.9,286047011.2,N
1513844175.8,286047011.5,N
1513844195.6,286047009.6,N
1513844215.4,286047012.0,N
1513844235.2,286047010.1,N
1513844255.1,286047009.8,N
1513844256.0,286047009.8,N
1513844275.8,286047011.8,N
1513844295.6,286047016.7,N
1513844315.5,286047016.3,N
1513844335.3,286047018.5,N
1513844355.1,286047016.7,N
1513844375.9,286047015.8,N
1513844395.7,286047016.7,N
1513844415.5,286047014.8,N
1513844435.4,286047016.5,N
1513844455.2,286047017.6,Y
1513844475.0,286047006.9,P
1513844475.9,286047006.9,P
1513844495.8,286047007.6,P
1513844515.6,286047003.4,Y
1513844535.4,286046994.1,P
1513844555.3,286046994.3,N
1513844575.1,286046993.9,N
1513844576.0,286046993.9,N
1513844595.8,286046993.5,N
1513844615.7,286046996.3,N
1513844635.5,286046997.2,N
1513844655.3,286046996.9,N
1513844675.1,286046997.3,N
1513844695.9,286047003.9,N
1513844715.7,286047001.8,N
1513844735.5,286047005.7,N
1513844755.4,286047001.7,N
1513844775.2,286046998.2,N
1513844795.0,286047000.3,N
1513844795.9,286047000.3,N
1513844815.8,286046997.2,N
1513844835.6,286047000.9,N
1513844855.4,286047002.4,N
1513844875.3,286046998.8,N
1513844895.1,286046999.5,N
1513844896.0,286046999.5,N
1513844915.8,286046994.3,N
1513844935.7,286046993.9,N
1513844955.5,286046995.1,N
1513844975.3,286046997.9,N
1513844995.1,286046997.5,N
1513845015.9,286046997.0,N
1513845035.7,286046996.9,N
1513845055.5,286046996.9,N
1513845075.4,286046999.5,N
1513845095.2,286046998.4,N
1513845115.0,286046998.8,N
1513845115.9,286046998.8,N
1513845135.8,286046997.1,N
1513845155.6,286046996.1,N
1513845175.4,286046995.0,N
1513845195.3,286046997.6,N
1513845215.1,286046992.2,N
1513845216.0,286046992.2,N
1513845235.8,286046995.4,N
1513845255.7,286046992.5,N
1513845275.5,286046989.1,Y
1513845295.3,286046995.9,P
1513845315.2,286046997.4,P
1513845335.9,286046993.9,P
1513845355.7,286046989.0,Y
1513845375.6,286046996.4,P
1513845395.4,286046994.2,P
1513845415.2,286046994.1,P
1513845435.1,286046995.0,Y
1513845436.0,286046995.0,P
1513845455.8,286047001.7,P
1513845475.6,286047004.1,N
1513845495.5,286047003.7,N
1513845515.3,286046998.3,N
1513845535.1,286046997.7,N
1513845555.9,286046996.7,N
1513845575.7,286047000.8,N
1513845595.5,286047001.2,N
1513845615.3,286046999.3,N
1513845635.2,286046997.9,N
1513845655.0,286046995.2,N
1513845655.9,286046995.2,N
1513845675.7,286046996.2,N
1513845695.6,286046995.7,N
1513845715.4,286046995.8,N
1513845735.2,286046997.7,N
1513845755.1,286046993.7,N
1513845756.0,286046993.7,N
1513845775.8,286046992.3,N
1513845795.6,286046991.7,N
1513845815.5,286046990.6,N
1513845835.3,286046987.6,Y
1513845855.1,286046987.7,P
1513845875.9,286046986.4,N
1513845895.7,286046986.3,N
1513845915.5,286046990.0,N
1513845935.4,286046985.5,Y
1513845955.2,286046996.5,P
1513845975.0,286046997.2,N
1513845975.9,286046997.2,N
1513845995.8,286046996.4,N
1513846015.6,286046993.5,N
1513846035.4,286046996.4,N
1513846055.3,286046994.2,N
1513846075.1,286046993.2,N
1513846076.0,286046993.2,N
1513846095.8,286046987.8,Y
1513846115.7,286046995.2,P
1513846135.5,286046995.7,P
1513846155.3,286046997.8,P
1513846175.2,286046999.7,N
1513846195.9,286047003.6,N
1513846215.7,286047002.7,N
1513846235.5,286047001.5,N
1513846255.4,286047001.0,N
1513846275.2,286046996.7,N
1513846295.0,286046995.0,N
1513846295.9,286046995.0,N
1513846315.8,286046995.8,N
1513846335.6,286046994.9,N
1513846355.4,286046996.9,N
1513846375.3,286046999.3,N
1513846395.1,286046996.9,N
1513846396.0,286046996.9,N
1513846415.8,286046993.8,N
1513846435.7,286046995.3,N
1513846455.5,286046997.9,N
1513846475.3,286046995.7,N
1513846495.2,286046993.7,N
1513846515.9,286046996.1,N
1513846535.7,286046995.3,N
1513846555.5,286046993.2,N
1513846575.4,286046987.1,Y
1513846595.2,286046994.5,P
1513846615.1,286046997.7,N
1513846616.0,286046997.7,N
1513846635.8,286046999.7,N
1513846655.6,286046998.4,N
1513846675.5,286046992.2,Y
1513846695.3,286046999.2,P
1513846715.1,286046996.7,P
1513846735.8,286046996.9,N
1513846755.7,286046998.1,N
1513846775.5,286046999.3,N
1513846795.3,286047002.7,N
